User: anonymous   Login
Location: Oshawa
(43.9000°N, 78.8670°W)
Time: 09:09:43
(UTC-04:00)
Language:

PAYLOAD A - Orbit

View from above orbital plane
View from above orbital plane
View from above satellite
View from above satellite

Ground track
Ground track

The orbit data is extracted from the following two-line orbital elements,

1 27840U 03031A   17290.06708603 -.00000003  00000-0  11972-4 0  9995
2 27840  98.2135 282.3741 0099410 111.4313 249.7514 14.38889974750842
Epoch (UTC): 17 October 2017 01:36:36
Eccentricity: 0.0099410
inclination: 98.2135°
perigee height: 691 km
apogee height: 833 km
right ascension of ascending node: 282.3741°
argument of perigee: 111.4313°
revolutions per day: 14.38889974
mean anomaly at epoch: 249.7514°
orbit number at epoch: 75084

The dashed part of the orbit path shows where the satellite is in the earth's shadow,  

DLR